Simultaneous Nadir Overpasses (SNOs) Predictions

Prediction of SNOs between LANDSAT-8 and METOP-B Satellite Orbit:

Table of predicted SNOs for the next 14.0 days since TLE Epoch: 1/7/2017
Index Date (LANDSAT-8) Time (LANDSAT-8) Lat,Lon (LANDSAT-8) SZA (LANDSAT-8 ) Date (METOP-B) Time (METOP-B) Lat,Lon (METOP-B) SZA (METOP-B ) Distance(km) Time Diff (sec)
1 01/09/2017 20:36:32 -81.08, 90.05 75.25 01/09/2017 20:35:54 -81.09, 90.20 75.24 2.59 38
2 01/09/2017 21:25:57 81.11,-101.87 104.82 01/09/2017 21:26:33 81.11,-102.03 104.81 2.94 36
3 01/12/2017 16:10:46 -81.08, 156.35 75.73 01/12/2017 16:10:14 -81.08, 156.20 75.76 2.58 32
4 01/12/2017 17:00:11 81.10, -35.60 104.33 01/12/2017 17:00:52 81.11, -35.67 104.34 1.28 41
5 01/15/2017 11:45:00 -81.09,-137.02 76.23 01/15/2017 11:44:33 -81.08,-137.18 76.25 2.79 27
6
